Regional Weather Roundup
Issued by NWS Albany, NY

Home | Current Version | Previous Version | Text Only | Print | Product List | Glossary On
Versions: 1 2 3 4 5 6 7 8 9 10 11 12 13 14 15 16 17 18 19 20 21 22 23 24 25 26 27 28 29 30 31 32 33 34 35 36 37 38 39 40 41 42 43 44 45 46 47 48 49 50
000
ASUS41 KALY 230810
RWRALY

NEW YORK STATE HOURLY WEATHER ROUNDUP
NATIONAL WEATHER SERVICE ALBANY NY
400 AM EDT WED JUL 23 2014

NOTE: "FAIR" INDICATES FEW OR NO CLOUDS BELOW 12,000 FEET WITH NO
SIGNIFICANT WEATHER AND/OR NO OBSTRUCTIONS TO VISIBILITY.

NYZ032-033-038>043-046>054-057>066-NYZ062>081-230900-
EAST


CITY           SKY/WX    TMP DP  RH WIND       PRES   REMARKS
ALBANY         PTCLDY    75  68  78 S6        29.92F
GLENS FALLS    CLEAR     72  69  90 S6        29.90F
POUGHKEEPSIE   CLEAR     74  68  81 S5        29.96F
NEWBURGH       PTCLDY    72  68  88 SW6       30.02
MONTGOMERY     CLEAR     69  67  93 CALM      29.98F
WHITE PLAINS   CLEAR     72  64  76 CALM      30.00F
ISLIP          CLEAR     72  65  78 SW6       29.99F
NEW YORK CITY  PTCLDY    75  62  64 SW7       29.99F
CENTRAL PARK   CLEAR     74  62  66 W7G18     30.03F
$$

NYZ005>009-017-018-044>046-055-056-230900-
CENTRAL


CITY           SKY/WX    TMP DP  RH WIND       PRES   REMARKS
FULTON         MOCLDY    76  69  79 S9        29.87F
SYRACUSE       MOCLDY    79  69  71 SW8       29.88F
ROME           MOCLDY    71  68  90 E5        29.91F
ELMIRA         CLEAR     68  67  96 CALM      29.95F
BINGHAMTON     CLEAR     70  67  90 SW9       30.00F
MONTICELLO     MOCLDY    68  66  94 CALM      30.03F
$$

NYZ026>034-041>043-230900-
NORTH


CITY           SKY/WX    TMP DP  RH WIND       PRES   REMARKS
WATERTOWN      CLEAR     76  67  73 S9        29.84F
FORT DRUM      NOT AVBL
MASSENA        CLEAR     72  68  87 SW8       29.80F
SARANAC LAKE   MOCLDY    63  62  97 CALM      29.91F FOG
PLATTSBURGH    PTCLDY    68  63  84 CALM      29.82F
$$

NYZ001>004-010>016-019>021-230900-
WEST


CITY           SKY/WX    TMP DP  RH WIND       PRES   REMARKS
NIAGARA FALLS  PTCLDY    75  69  81 SW14      29.85F
BUFFALO        PTCLDY    77  67  71 SW15      29.88F
DUNKIRK        CLEAR     75  67  76 S12G21    29.90F
JAMESTOWN      CLEAR     70  66  88 S5        29.98F
WELLSVILLE     CLEAR     72  66  81 SW5       30.02F
ROCHESTER      PTCLDY    73  67  81 SW8       29.87F
PENN YAN       CLEAR     74  69  85 SW8       29.93F
$$

             KEY
       WCI = WIND CHILL INDEX
       VSB = VISIBILITY
       HX  = HEAT INDEX
$$


USA.gov is the U.S. government's official web portal to all federal, state and local government web resources and services.